This demonstration page uses our WeatherBlox Daily Observations layout. Learn more.

Left ArrowRight Arrow

39.51506, -84.39828

Hourly Observations for April 25, 2020

Temp ( °F °C ) Dew Point ( °F °C ) Humidity (%) Winds ( mph kmh ) Pressure ( in mb ) Visibility ( mi km ) Precip ( " mm )
12:15 am 00:15 undefined 49 9.2 48 8.9 98 98 N N/A 29.90 1013 N/A N/A
12:35 am 00:35 undefined 48 8.8 47 8.4 97 97 N N/A 29.90 1013 N/A N/A
12:55 am 00:55 undefined 48 8.7 47 8.4 98 98 N N/A 29.91 1013 N/A N/A
1:15 am 01:15 undefined 47 8.5 47 8.1 97 97 N N/A 29.92 1013 N/A N/A
1:35 am 01:35 undefined 46 7.8 46 7.6 99 99 N N/A 29.92 1013 N/A N/A
1:55 am 01:55 undefined 46 7.8 46 7.6 99 99 N N/A 29.92 1013 N/A N/A
2:15 am 02:15 undefined 46 7.5 45 7.2 98 98 N N/A 29.93 1013 N/A N/A
2:35 am 02:35 undefined 46 7.6 45 7.3 98 98 N N/A 29.93 1013 N/A N/A
2:55 am 02:55 undefined 46 7.8 45 7.4 97 97 N N/A 29.92 1013 N/A N/A
3:15 am 03:15 undefined 45 7.1 44 6.8 98 98 N N/A 29.92 1013 N/A N/A
3:35 am 03:35 undefined 45 7.2 44 6.9 98 98 N N/A 29.91 1013 N/A N/A
3:55 am 03:55 undefined 44 6.7 44 6.6 99 99 N N/A 29.91 1013 N/A N/A
4:15 am 04:15 undefined 44 6.8 44 6.7 99 99 N N/A 29.91 1013 N/A N/A
4:35 am 04:35 undefined 44 6.9 44 6.8 99 99 N N/A 29.91 1013 N/A N/A
4:55 am 04:55 undefined 45 7 44 6.9 99 99 N N/A 29.92 1013 N/A N/A
5:15 am 05:15 undefined 44 6.6 44 6.4 99 99 N N/A 29.92 1013 N/A N/A
5:35 am 05:35 undefined 44 6.7 44 6.6 99 99 N N/A 29.93 1013 N/A N/A
5:55 am 05:55 undefined 44 6.7 44 6.6 99 99 N N/A 29.93 1013 N/A N/A
6:15 am 06:15 undefined 44 6.8 44 6.7 99 99 N N/A 29.93 1013 N/A N/A
6:35 am 06:35 undefined 43 6 43 5.9 99 99 N 5 7 29.94 1014 N/A N/A
6:55 am 06:55 undefined 44 6.8 44 6.7 99 99 N 5 7 29.94 1014 N/A N/A
7:15 am 07:15 undefined 45 7.1 44 6.9 99 99 N N/A 29.94 1014 N/A N/A
7:35 am 07:35 undefined 46 7.9 46 7.7 99 99 N N/A 29.92 1013 N/A N/A
7:55 am 07:55 undefined 48 8.9 47 8.4 97 97 N N/A 29.92 1013 N/A N/A
8:15 am 08:15 undefined 51 10.3 49 9.2 93 93 NNE 3 6 29.92 1013 N/A N/A
8:35 am 08:35 undefined 52 11 49 9.2 89 89 ENE 5 7 29.92 1013 N/A N/A
8:55 am 08:55 undefined 55 12.5 50 9.9 84 84 NE 5 7 29.91 1013 N/A N/A
9:15 am 09:15 Sunny 56 13.2 49 9.5 78 78 E 6 9 29.91 1013 N/A N/A
9:35 am 09:35 Sunny 58 14.2 49 9.5 74 74 E 9 15 29.90 1012 N/A N/A
9:55 am 09:55 Sunny 58 14.7 50 9.9 73 73 E 8 13 29.90 1012 N/A N/A
10:15 am 10:15 Sunny 60 15.3 51 10.3 72 72 ESE 10 17 29.90 1012 N/A N/A
10:35 am 10:35 Sunny 62 16.5 52 10.9 70 70 E 10 17 29.88 1012 N/A N/A
10:55 am 10:55 Sunny 62 16.9 51 10.6 67 67 ESE 9 15 29.87 1012 N/A N/A
11:15 am 11:15 Sunny 63 17.4 51 10.8 65 65 ESE 9 15 29.86 1011 N/A N/A
11:35 am 11:35 Sunny 66 18.9 51 10.6 59 59 E 13 20 29.86 1011 N/A N/A
11:55 am 11:55 Sunny 66 19 51 10.3 57 57 SE 18 30 29.86 1011 N/A N/A
12:15 pm 12:15 Partly Cloudy 65 18.6 51 10.3 59 59 ESE 14 22 29.85 1011 N/A N/A
12:35 pm 12:35 Partly Cloudy 67 19.3 51 10.8 58 58 ESE 14 22 29.83 1010 N/A N/A
12:55 pm 12:55 Mostly Cloudy 66 19 51 10.5 58 58 ESE 9 15 29.83 1010 N/A N/A
1:15 pm 13:15 Mostly Cloudy 67 19.6 50 10.1 54 54 SSE 12 19 29.82 1010 N/A N/A
1:35 pm 13:35 Cloudy 65 18.5 49 9.6 56 56 SSE 10 17 29.82 1010 N/A N/A
1:55 pm 13:55 Partly Cloudy 67 19.7 50 10.2 54 54 ESE 14 22 29.81 1009 N/A N/A
2:15 pm 14:15 Partly Cloudy 67 19.5 50 9.9 54 54 SSE 12 19 29.80 1009 N/A N/A
2:35 pm 14:35 Partly Cloudy 68 20.2 49 9.7 51 51 SE 12 19 29.78 1009 N/A N/A
2:55 pm 14:55 Mostly Cloudy 69 20.6 50 9.8 50 50 SE 13 20 29.76 1008 N/A N/A
3:15 pm 15:15 Mostly Cloudy 68 20.1 48 9.1 49 49 E 9 15 29.75 1008 N/A N/A
3:35 pm 15:35 Sunny 71 21.4 48 9.1 46 46 E 13 20 29.74 1007 N/A N/A
3:55 pm 15:55 Mostly Cloudy 69 20.7 48 8.8 47 47 E 15 24 29.74 1007 N/A N/A
4:15 pm 16:15 Partly Cloudy 68 20 47 8.5 48 48 ESE 12 19 29.73 1007 N/A N/A
4:35 pm 16:35 Partly Cloudy 68 19.8 48 8.7 49 49 E 9 15 29.74 1007 N/A N/A
4:55 pm 16:55 Cloudy 67 19.5 47 8.6 50 50 E 12 19 29.73 1007 N/A N/A
5:15 pm 17:15 Mostly Cloudy 67 19.5 48 8.7 50 50 E 10 17 29.73 1007 N/A N/A
5:35 pm 17:35 Cloudy 67 19.2 48 8.8 51 51 ESE 9 15 29.73 1007 N/A N/A
5:55 pm 17:55 Cloudy 67 19.2 48 8.7 51 51 ESE 8 13 29.73 1007 N/A N/A
6:15 pm 18:15 Cloudy 66 18.8 49 9.3 54 54 ESE 5 7 29.73 1007 N/A N/A
6:35 pm 18:35 Cloudy 64 17.6 49 9.2 58 58 SSE 22 35 29.74 1007 N/A N/A
6:55 pm 18:55 undefined 59 14.8 55 12.7 87 87 S 15 24 29.75 1007 N/A N/A
7:15 pm 19:15 Cloudy 58 14.4 55 12.5 88 88 S 8 13 29.76 1008 N/A N/A
7:35 pm 19:35 undefined 58 14.4 55 12.7 90 90 N N/A 29.76 1008 N/A N/A
7:55 pm 19:55 undefined 58 14.2 55 12.9 92 92 N N/A 29.75 1007 N/A N/A
8:15 pm 20:15 undefined 57 13.8 55 12.8 94 94 N N/A 29.74 1007 N/A N/A
8:35 pm 20:35 undefined 56 13.5 55 12.8 96 96 N N/A 29.73 1007 N/A N/A
8:55 pm 20:55 Cloudy 56 13.6 55 12.7 94 94 N N/A 29.73 1007 N/A N/A
9:15 pm 21:15 Cloudy 56 13.2 55 12.9 98 98 N N/A 29.73 1007 N/A N/A
9:35 pm 21:35 undefined 56 13.3 55 12.9 97 97 N 6 9 29.72 1006 N/A N/A
9:55 pm 21:55 undefined 56 13.5 55 13 97 97 NNE 9 15 29.74 1007 N/A N/A
10:15 pm 22:15 Cloudy 56 13.4 55 12.5 94 94 NNE 9 15 29.74 1007 N/A N/A
10:35 pm 22:35 undefined 56 13.2 54 12.2 94 94 NNE 7 11 29.74 1007 N/A N/A
10:55 pm 22:55 Cloudy 56 13.1 53 11.7 91 91 NNE 9 15 29.74 1007 N/A N/A
11:15 pm 23:15 undefined 55 12.7 51 10.7 88 88 NNE 9 15 29.74 1007 N/A N/A
11:35 pm 23:35 undefined 53 11.8 50 9.8 88 88 N 10 17 29.73 1007 N/A N/A
11:55 pm 23:55 undefined 52 11.2 50 10.1 93 93 NNE 8 13 29.74 1007 N/A N/A

Powered by AerisWeather